Starlink 31278

operational
NORAD ID: 59163 Int'l Des: 2024-044 Owner: SPXS Country: US Constellation: starlink
LEOCIRCULAR

关于 Starlink 31278

正在加载描述...

实时位置

正在加载3D地球...

即将过境

高度历史

Altitude vs Time

uPlot chart will show altitude changes over time

两行轨道根数

1 59163U 24044M 25258.03360998 .00011541 00000-0 42809-3 0 9996
2 59163 43.0021 18.8364 0001359 274.3855 85.6842 15.27594099 86703
Epoch: Sep 15, 2025 • Age: 12 hours

当前状态

高度 494.9 km
速度 7.62 km/s
星下点 -42.04°S, 111.86°E
发射日期 Mar 4, 2024
运行时间 1.5 years
类型 internet

技术详情

分类 Payload
质量 730.00 kg
干质量 700.00 kg
总质量 730.00 kg
长度 0.30 m
直径 4.10 m
跨度 29.00 m
形状 Box + pan
制造商 SPXS
平台类型 Starlink V2M
阶段状态 In Orbit
所有者/国家 SPXS/US

大型星座

Loading constellations...